Location: Cardiff
(53.7833°N, 113.6000°W)
Time: 21:02:24
(UTC+00:00)

Oscar 19 - Pass Details

Date: 07 December 2023
Orbit: 771 x 789 km, 98.9° (Epoch: 04 March)

Event Time Altitude Azimuth Distance (km) Brightness Sun altitude
Rises 12:33:30 0° 16° (NNE) 3,275 14.0 -25.7°
Reaches altitude 10° 12:35:49 10° 18° (NNE) 2,345 13.2 -25.3°
Maximum altitude 12:41:00 82° 105° (ESE) 797 10.6 -24.6°
Drops below altitude 10° 12:46:11 10° 195° (SSW) 2,340 13.0 -23.8°
Sets 12:48:30 0° 196° (SSW) 3,267 13.8 -23.5°
